Location: Newark
(48.1500°N, 2.9667°W)
Time: 02:02:04
(UTC+00:00)

A-11 Canister half - Pass Details

Date: 29 January 2020
Orbit: 1524 x 1684 km, 47.3° (Epoch: 25 February)

Event Time Altitude Azimuth Distance (km) Brightness Sun altitude
Rises 23:03:03 0° 290° (WNW) 4,742 12.0 -55.4°
Reaches altitude 10° 23:06:21 10° 283° (WNW) 3,777 11.3 -55.7°
Enters shadow 23:07:43 15° 279° (W) 3,404 11.0 -55.9°
Maximum altitude 23:14:53 38° 220° (SW) 2,280 - -56.5°
Drops below altitude 10° 23:23:41 10° 157° (SSE) 3,879 - -57.2°
Sets 23:27:08 0° 150° (SSE) 4,883 - -57.5°
